Regional Weather Roundup
Issued by NWS

Home | Current Version | Previous Version | Graphics & Text | Print | Product List | Glossary On
Versions: 1 2 3 4 5 6 7 8 9 10 11 12 13 14 15 16 17 18 19 20 21 22 23 24 25 26 27 28 29 30 31 32 33 34 35 36 37 38 39 40 41 42 43 44 45 46 47 48 49 50
000
ASUS43 KBIS 162210
RWRND

NORTH DAKOTA REGIONAL WEATHER ROUNDUP
NATIONAL WEATHER SERVICE BISMARCK ND
400 PM CST TUE JAN 16 2018

NOTE: "FAIR" INDICATES FEW OR NO CLOUDS BELOW 12,000 FEET WITH NO
SIGNIFICANT WEATHER AND/OR OBSTRUCTIONS TO VISIBILITY.


NDZ001>003-009>011-017-162300-
NORTHWEST NORTH DAKOTA

CITY           SKY/WX    TMP DP  RH WIND       PRES   REMARKS
WILLISTON      SUNNY     12  -2  53 S3        30.28F
MINOT          CLOUDY    13  -4  46 S15G23    30.29F WCI  -3
MINOT AFB      CLOUDY    12  -2  54 SW9       30.28F WCI  -1
$$

NDZ018>021-031>035-040>046-162300-
SOUTHWEST NORTH DAKOTA

CITY           SKY/WX    TMP DP  RH WIND       PRES   REMARKS
BISMARCK       SUNNY     10  -3  55 SE6       30.45F WCI   0
DICKINSON      MOSUNNY   15  -1  49 S14       30.27S WCI   0
GARRISON         N/A     11  -3  53 S10       30.34F WCI  -3
HETTINGER ARPT MOSUNNY   15  -2  46 SE9       30.33S WCI   3
$$

NDZ004>008-012>016-024-026-027-054-162300-
NORTHEAST NORTH DAKOTA

CITY           SKY/WX    TMP DP  RH WIND       PRES   REMARKS
GRAND FORKS    MOCLDY     6  -2  69 S17       30.51F WCI -13
GRND FRKS AFB  CLOUDY     7  -4  61 S14       30.49F WCI -10
DEVILS LAKE    FAIR       7  -4  60 S14       30.41F WCI -10
$$

NDZ022-023-025-028>030-036>039-047>053-162300-
SOUTHEAST NORTH DAKOTA

CITY           SKY/WX    TMP DP  RH WIND       PRES   REMARKS
FARGO          FAIR       4  -5  66 S15       30.58F WCI -14
JAMESTOWN      CLOUDY    10  -3  55 S13       30.47F WCI  -5
$$





USA.gov is the U.S. government's official web portal to all federal, state and local government web resources and services.